| time (UTC) | temp F | wind direction | speed MPH | gust MPH | rain 1hr in | rain 24hr in | rain mn in | humidity % | barometer mb |
| 20260905154512 | 90 | 278 | 1.0 | 6.0 | 0.00 | 0.01 | 0.00 | 71 | 1011.1 |
| 20260905153051 | 90 | 330 | 2.0 | 5.0 | 0.00 | 0.01 | 0.00 | 77 | 1011.1 |
| 20260905151556 | 89 | 276 | 0.0 | 4.0 | 0.00 | 0.01 | 0.00 | 77 | 1011.2 |
| 20260905151504 | 89 | 333 | 0.0 | 4.0 | 0.00 | 0.01 | 0.00 | 75 | 1011.2 |
| 20260905150019 | 88 | 290 | 2.0 | 6.0 | 0.00 | 0.01 | 0.00 | 77 | 1011.2 |
| 20260905144536 | 87 | 357 | 2.0 | 6.0 | 0.00 | 0.01 | 0.00 | 78 | 1011.1 |
| 20260905143049 | 86 | 290 | 0.0 | 6.0 | 0.00 | 0.01 | 0.00 | 81 | 1011.2 |
| 20260905141519 | 85 | 300 | 1.0 | 4.0 | 0.00 | 0.01 | 0.00 | 84 | 1011.1 |
| 20260905140031 | 84 | 307 | 2.0 | 6.0 | 0.00 | 0.01 | 0.00 | 83 | 1011.1 |
| 20260905134553 | 83 | 347 | 1.0 | 3.0 | 0.00 | 0.01 | 0.00 | 86 | 1011.2 |
| 20260905133006 | 81 | 293 | 2.0 | 5.0 | 0.00 | 0.01 | 0.00 | 88 | 1011.3 |
| 20260905131536 | 80 | 274 | 2.0 | 5.0 | 0.00 | 0.01 | 0.00 | 89 | 1011.2 |
| 20260905130048 | 79 | 225 | 0.0 | 5.0 | 0.00 | 0.01 | 0.00 | 92 | 1011.2 |
| 20260905124504 | 76 | 295 | 0.0 | 3.0 | 0.00 | 0.01 | 0.00 | 94 | 1011.4 |
| 20260905123024 | 75 | 293 | 0.0 | 2.0 | 0.00 | 0.01 | 0.00 | 95 | 1011.4 |
| 20260905121544 | 73 | 212 | 0.0 | 3.0 | 0.00 | 0.01 | 0.00 | 96 | 1011.3 |
| 20260905120006 | 72 | 229 | 0.0 | 0.0 | 0.00 | 0.01 | 0.00 | 98 | 1011.2 |
| 20260905114530 | 71 | 153 | 0.0 | 0.0 | 0.00 | 0.01 | 0.00 | 98 | 1011.2 |
| 20260905113050 | 71 | 126 | 0.0 | 0.0 | 0.00 | 0.01 | 0.00 | 98 | 1011.0 |
| 20260905111525 | 71 | 126 | 0.0 | 0.0 | 0.00 | 0.01 | 0.00 | 98 | 1011.0 |
| 20260905110051 | 70 | 205 | 0.0 | 0.0 | 0.00 | 0.01 | 0.00 | 98 | 1010.8 |
| 20260905104503 | 70 | 205 | 0.0 | 0.0 | 0.00 | 0.01 | 0.00 | 98 | 1010.6 |
| 20260905103030 | 71 | 205 | 0.0 | 0.0 | 0.00 | 0.01 | 0.00 | 98 | 1010.3 |
| 20260905101551 | 71 | 205 | 0.0 | 0.0 | 0.00 | 0.01 | 0.00 | 98 | 1010.3 |
| 20260905100019 | 71 | 172 | 0.0 | 0.0 | 0.00 | 0.01 | 0.00 | 98 | 1010.4 |
| 20260905094536 | 71 | 184 | 0.0 | 0.0 | 0.00 | 0.01 | 0.00 | 98 | 1010.4 |
| 20260905093100 | 71 | 185 | 0.0 | 0.0 | 0.00 | 0.01 | 0.00 | 98 | 1010.3 |
| 20260905091522 | 71 | 185 | 0.0 | 0.0 | 0.00 | 0.01 | 0.00 | 98 | 1010.3 |
| 20260905090041 | 71 | 185 | 0.0 | 0.0 | 0.00 | 0.01 | 0.00 | 98 | 1010.4 |
| 20260905084615 | 71 | 161 | 0.0 | 0.0 | 0.00 | 0.01 | 0.00 | 98 | 1010.7 |
| 20260905083022 | 71 | 161 | 0.0 | 0.0 | 0.00 | 0.01 | 0.00 | 97 | 1010.8 |
| 20260905081541 | 71 | 161 | 0.0 | 0.0 | 0.00 | 0.01 | 0.00 | 97 | 1010.9 |
| 20260905080011 | 71 | 161 | 0.0 | 0.0 | 0.00 | 0.01 | 0.00 | 97 | 1011.0 |
| 20260905074540 | 71 | 161 | 0.0 | 0.0 | 0.00 | 0.01 | 0.00 | 97 | 1011.0 |
| 20260905073101 | 71 | 212 | 0.0 | 0.0 | 0.00 | 0.01 | 0.00 | 97 | 1011.4 |
| 20260905071536 | 71 | 212 | 0.0 | 0.0 | 0.00 | 0.01 | 0.00 | 97 | 1011.6 |
| 20260905070039 | 71 | 213 | 0.0 | 0.0 | 0.00 | 0.01 | 0.00 | 97 | 1011.7 |
| 20260905064509 | 71 | 212 | 0.0 | 0.0 | 0.00 | 0.01 | 0.00 | 97 | 1011.9 |
| 20260905063029 | 71 | 312 | 0.0 | 0.0 | 0.00 | 0.01 | 0.00 | 97 | 1012.0 |
| 20260905061604 | 71 | 313 | 0.0 | 0.0 | 0.00 | 0.01 | 0.00 | 97 | 1012.4 |
| 20260905060017 | 71 | 313 | 0.0 | 0.0 | 0.00 | 0.01 | 0.00 | 97 | 1012.7 |
| 20260905054545 | 72 | 313 | 0.0 | 0.0 | 0.00 | 0.01 | 0.00 | 96 | 1013.0 |
| 20260905053140 | 72 | 313 | 0.0 | 0.0 | 0.00 | 0.01 | 0.00 | 96 | 1012.9 |
| 20260905053002 | 72 | 313 | 0.0 | 0.0 | 0.00 | 0.01 | 0.00 | 96 | 1012.9 |
| 20260905051525 | 72 | 294 | 0.0 | 0.0 | 0.00 | 0.01 | 0.00 | 96 | 1012.9 |
| 20260905050046 | 72 | 294 | 0.0 | 0.0 | 0.00 | 0.01 | 0.00 | 96 | 1013.1 |
| 20260905044518 | 72 | 293 | 0.0 | 0.0 | 0.00 | 0.01 | 0.00 | 95 | 1013.4 |
| 20260905043040 | 72 | 293 | 0.0 | 0.0 | 0.00 | 0.01 | 0.00 | 95 | 1013.4 |
| 20260905041553 | 72 | 293 | 0.0 | 0.0 | 0.00 | 0.01 | 0.00 | 94 | 1013.5 |
| 20260905040023 | 72 | 339 | 0.0 | 0.0 | 0.00 | 0.01 | 0.01 | 93 | 1014.0 |
| 20260905034533 | 72 | 214 | 0.0 | 4.0 | 0.00 | 0.01 | 0.01 | 93 | 1013.7 |
| 20260905033102 | 72 | 174 | 2.0 | 5.0 | 0.01 | 0.01 | 0.01 | 93 | 1013.7 |
| 20260905031523 | 73 | 219 | 0.0 | 5.0 | 0.01 | 0.01 | 0.01 | 93 | 1014.0 |
| 20260905030039 | 73 | 118 | 0.0 | 5.0 | 0.01 | 0.01 | 0.01 | 93 | 1014.1 |
| 20260905024621 | 75 | 234 | 0.0 | 6.0 | 0.01 | 0.01 | 0.01 | 90 | 1014.5 |
| 20260905023020 | 76 | 148 | 1.0 | 7.0 | 0.00 | 0.00 | 0.00 | 89 | 1014.3 |
| 20260905021545 | 76 | 138 | 0.0 | 4.0 | 0.00 | 0.00 | 0.00 | 87 | 1015.0 |
| 20260905020006 | 78 | 68 | 0.0 | 6.0 | 0.00 | 0.00 | 0.00 | 84 | 1014.9 |
| 20260905014532 | 81 | 90 | 3.0 | 10.0 | 0.00 | 0.00 | 0.00 | 80 | 1014.2 |
| 20260905013050 | 84 | 68 | 0.0 | 0.0 | 0.00 | 0.00 | 0.00 | 83 | 1014.2 |
| 20260905011517 | 85 | 123 | 0.0 | 0.0 | 0.00 | 0.00 | 0.00 | 82 | 1013.2 |
| 20260905010039 | 85 | 170 | 0.0 | 2.0 | 0.00 | 0.00 | 0.00 | 81 | 1012.5 |
| 20260905004507 | 86 | 165 | 2.0 | 4.0 | 0.00 | 0.00 | 0.00 | 81 | 1011.8 |
| 20260905003021 | 86 | 206 | 1.0 | 4.0 | 0.00 | 0.00 | 0.00 | 81 | 1011.5 |
| 20260905001543 | 86 | 212 | 1.0 | 3.0 | 0.00 | 0.00 | 0.00 | 80 | 1011.9 |
| 20260905000013 | 87 | 207 | 1.0 | 3.0 | 0.00 | 0.00 | 0.00 | 79 | 1011.5 |
| 20260904234533 | 87 | 212 | 0.0 | 4.0 | 0.00 | 0.00 | 0.00 | 77 | 1011.5 |
| 20260904233059 | 88 | 221 | 1.0 | 3.0 | 0.00 | 0.00 | 0.00 | 76 | 1011.6 |
| 20260904231515 | 89 | 236 | 0.0 | 5.0 | 0.00 | 0.00 | 0.00 | 75 | 1011.3 |
| 20260904230033 | 90 | 165 | 2.0 | 7.0 | 0.00 | 0.00 | 0.00 | 74 | 1011.3 |
| 20260904224605 | 90 | 221 | 2.0 | 6.0 | 0.00 | 0.00 | 0.00 | 72 | 1011.2 |
| 20260904223023 | 91 | 205 | 3.0 | 9.0 | 0.00 | 0.00 | 0.00 | 72 | 1011.3 |
| 20260904221545 | 91 | 190 | 3.0 | 8.0 | 0.00 | 0.00 | 0.00 | 72 | 1011.2 |
| 20260904220009 | 93 | 155 | 3.0 | 8.0 | 0.00 | 0.00 | 0.00 | 69 | 1011.5 |
| 20260904214539 | 95 | 226 | 6.0 | 11.0 | 0.00 | 0.00 | 0.00 | 66 | 1011.5 |
| 20260904213049 | 95 | 212 | 3.0 | 10.0 | 0.00 | 0.00 | 0.00 | 68 | 1011.5 |
| 20260904211508 | 95 | 223 | 5.0 | 12.0 | 0.00 | 0.00 | 0.00 | 67 | 1011.5 |
| 20260904210039 | 95 | 241 | 3.0 | 11.0 | 0.00 | 0.00 | 0.00 | 67 | 1011.2 |
| 20260904204550 | 95 | 198 | 3.0 | 11.0 | 0.00 | 0.00 | 0.00 | 64 | 1011.4 |
| 20260904204501 | 95 | 210 | 3.0 | 11.0 | 0.00 | 0.00 | 0.00 | 65 | 1011.4 |
| 20260904203017 | 96 | 205 | 6.0 | 10.0 | 0.00 | 0.00 | 0.00 | 64 | 1011.7 |
| 20260904201551 | 95 | 197 | 5.0 | 9.0 | 0.00 | 0.00 | 0.00 | 65 | 1011.9 |
| 20260904200107 | 95 | 215 | 4.0 | 12.0 | 0.00 | 0.00 | 0.00 | 68 | 1012.1 |
| 20260904194520 | 95 | 221 | 2.0 | 8.0 | 0.00 | 0.00 | 0.00 | 65 | 1012.6 |
| 20260904193039 | 95 | 229 | 2.0 | 6.0 | 0.00 | 0.00 | 0.00 | 66 | 1012.7 |
| 20260904191509 | 95 | 224 | 3.0 | 8.0 | 0.00 | 0.00 | 0.00 | 67 | 1012.9 |
| 20260904190029 | 94 | 221 | 5.0 | 10.0 | 0.00 | 0.00 | 0.00 | 68 | 1013.2 |
| 20260904184546 | 94 | 219 | 5.0 | 11.0 | 0.00 | 0.00 | 0.00 | 69 | 1013.2 |
| 20260904183006 | 95 | 226 | 3.0 | 8.0 | 0.00 | 0.00 | 0.00 | 70 | 1013.6 |
| 20260904181530 | 95 | 230 | 2.0 | 7.0 | 0.00 | 0.00 | 0.00 | 71 | 1013.8 |
| 20260904180043 | 94 | 224 | 5.0 | 9.0 | 0.00 | 0.00 | 0.00 | 71 | 1013.9 |
| 20260904174508 | 94 | 148 | 3.0 | 10.0 | 0.00 | 0.00 | 0.00 | 72 | 1014.0 |
| 20260904173026 | 94 | 219 | 2.0 | 7.0 | 0.00 | 0.00 | 0.00 | 74 | 1014.2 |
| 20260904171604 | 93 | 268 | 1.0 | 9.0 | 0.00 | 0.00 | 0.00 | 72 | 1014.3 |
| 20260904170016 | 93 | 162 | 5.0 | 9.0 | 0.00 | 0.00 | 0.00 | 71 | 1014.6 |
| 20260904164532 | 92 | 266 | 3.0 | 7.0 | 0.00 | 0.00 | 0.00 | 72 | 1014.8 |
| 20260904163102 | 92 | 232 | 1.0 | 7.0 | 0.00 | 0.00 | 0.00 | 75 | 1014.8 |
| 20260904161518 | 91 | 217 | 3.0 | 7.0 | 0.00 | 0.00 | 0.00 | 73 | 1014.9 |
| 20260904160040 | 91 | 167 | 6.0 | 11.0 | 0.00 | 0.00 | 0.00 | 74 | 1014.9 |